C7179 Weather Reports


time (UTC)temp
C
wind
direction
speed
KPH
gust
KPH
rain 1hr
cm
rain 24hr
cm
rain mn
cm
humidity
%
barometer
mb
20240222104025 17 233 4.8 16.1 0.00 0.00 0.00 83 1007.1
20240222103525 17 153 4.8 12.9 0.00 0.00 0.00 83 1007.3
20240222103024 17 167 4.8 14.5 0.00 0.00 0.00 83 1007.2
20240222102525 17 150 4.8 14.5 0.00 0.00 0.00 82 1007.4
20240222102022 17 195 6.4 14.5 0.00 0.00 0.00 82 1007.5
20240222101524 17 214 4.8 12.9 0.00 0.00 0.00 82 1007.5
20240222101021 17 172 4.8 12.9 0.00 0.00 0.00 82 1007.5
20240222100522 17 155 6.4 12.9 0.00 0.00 0.00 82 1007.6
20240222100038 17 211 4.8 12.9 0.00 0.00 0.00 82 1007.6
20240222095521 17 146 4.8 12.9 0.00 0.00 0.00 82 1007.4
20240222095024 17 155 4.8 11.3 0.00 0.00 0.00 82 1007.6
20240222094529 18 144 4.8 14.5 0.00 0.00 0.00 81 1007.7
20240222094025 18 185 4.8 16.1 0.00 0.00 0.00 81 1007.7
20240222093525 18 187 8.0 16.1 0.00 0.00 0.00 81 1007.9
20240222093027 18 217 6.4 17.7 0.00 0.00 0.00 81 1007.9
20240222092526 18 190 8.0 17.7 0.00 0.00 0.00 81 1008.0
20240222092026 18 137 4.8 12.9 0.00 0.00 0.00 80 1008.1
20240222091527 18 165 4.8 12.9 0.00 0.00 0.00 80 1008.1
20240222091025 18 134 6.4 14.5 0.00 0.00 0.00 80 1008.1
20240222090524 18 197 4.8 14.5 0.00 0.00 0.00 80 1008.3
20240222090051 18 207 6.4 14.5 0.00 0.00 0.00 79 1008.3
20240222085522 18 216 6.4 19.3 0.00 0.00 0.00 79 1008.5
20240222085022 18 128 8.0 19.3 0.00 0.00 0.00 79 1008.4
20240222084530 18 224 6.4 12.9 0.00 0.00 0.00 79 1008.5
20240222084022 18 174 6.4 11.3 0.00 0.00 0.00 79 1008.7
20240222083522 18 201 4.8 11.3 0.00 0.00 0.00 78 1008.6
20240222083037 18 197 6.4 19.3 0.00 0.00 0.00 78 1008.7
20240222082522 18 161 4.8 19.3 0.00 0.00 0.00 78 1008.8
20240222082025 18 205 4.8 12.9 0.00 0.00 0.00 78 1008.8
20240222081527 18 229 4.8 14.5 0.00 0.00 0.00 78 1008.9
20240222081025 18 245 4.8 14.5 0.00 0.00 0.00 78 1008.9
20240222080525 18 203 4.8 14.5 0.00 0.00 0.00 78 1009.0
20240222080038 18 169 4.8 17.7 0.00 0.00 0.00 78 1009.1
20240222075525 18 207 6.4 19.3 0.00 0.00 0.00 78 1009.2
20240222075023 18 153 4.8 19.3 0.00 0.00 0.00 78 1009.2
20240222074525 18 200 9.7 19.3 0.00 0.00 0.00 78 1009.2
20240222074022 18 186 6.4 16.1 0.00 0.00 0.00 78 1009.2
20240222073525 18 214 8.0 16.1 0.00 0.00 0.00 78 1009.2
20240222073032 18 155 6.4 19.3 0.00 0.00 0.00 78 1009.2
20240222072524 18 216 6.4 19.3 0.00 0.00 0.00 78 1009.3
20240222072021 18 120 8.0 19.3 0.00 0.00 0.00 78 1009.3
20240222071523 18 203 8.0 19.3 0.00 0.00 0.00 78 1009.3
20240222071022 18 183 8.0 17.7 0.00 0.00 0.00 78 1009.3
20240222070522 18 219 6.4 20.9 0.00 0.00 0.00 78 1009.2
20240222070040 18 162 9.7 20.9 0.00 0.00 0.00 78 1009.2
20240222065522 18 236 8.0 17.7 0.00 0.00 0.00 78 1009.2
20240222065024 18 170 8.0 16.1 0.00 0.00 0.00 78 1009.3
20240222064525 18 193 6.4 16.1 0.00 0.00 0.00 78 1009.3
20240222064025 18 159 6.4 19.3 0.00 0.00 0.00 78 1009.4
20240222063524 18 182 9.7 19.3 0.00 0.00 0.00 78 1009.5
20240222063025 18 117 8.0 19.3 0.00 0.00 0.00 78 1009.6
20240222062525 18 204 9.7 20.9 0.00 0.00 0.00 78 1009.5
20240222062025 18 173 8.0 20.9 0.00 0.00 0.00 78 1009.6
20240222061525 18 158 9.7 24.1 0.00 0.00 0.00 78 1009.5
20240222061025 18 284 6.4 24.1 0.00 0.00 0.00 78 1009.6
20240222060521 18 188 9.7 24.1 0.00 0.00 0.00 78 1009.3
20240222060026 18 193 6.4 16.1 0.00 0.00 0.00 77 1009.4
20240222055522 18 191 8.0 17.7 0.00 0.00 0.00 77 1009.3
20240222055022 18 176 6.4 20.9 0.00 0.00 0.00 76 1009.3
20240222054525 18 187 9.7 20.9 0.00 0.00 0.00 76 1009.4
20240222054022 18 198 8.0 17.7 0.00 0.00 0.00 76 1009.4
20240222053522 19 195 8.0 17.7 0.00 0.00 0.00 75 1009.5
20240222053031 19 217 8.0 19.3 0.00 0.00 0.00 75 1009.6
20240222052522 19 180 8.0 19.3 0.00 0.00 0.00 74 1009.6
20240222052022 19 197 8.0 17.7 0.00 0.00 0.00 74 1009.7
20240222051529 19 218 8.0 17.7 0.00 0.00 0.00 74 1009.6
20240222051025 19 226 6.4 14.5 0.00 0.00 0.00 73 1009.6
20240222050521 20 153 4.8 19.3 0.00 0.00 0.00 73 1009.6
20240222050026 20 185 6.4 19.3 0.00 0.00 0.00 72 1009.8
20240222045523 20 190 9.7 19.3 0.00 0.00 0.00 72 1009.7
20240222045022 20 196 9.7 19.3 0.00 0.00 0.00 71 1009.8
20240222044529 20 163 4.8 17.7 0.00 0.00 0.00 71 1009.9
20240222044023 20 189 6.4 17.7 0.00 0.00 0.00 71 1009.8
20240222043521 20 193 6.4 17.7 0.00 0.00 0.00 71 1009.7
20240222043028 20 205 6.4 17.7 0.00 0.00 0.00 70 1009.7
20240222042521 20 187 8.0 17.7 0.00 0.00 0.00 70 1009.6
20240222042021 20 209 4.8 14.5 0.00 0.00 0.00 70 1009.6
20240222041524 20 220 8.0 14.5 0.00 0.00 0.00 70 1009.6
20240222041022 20 184 4.8 16.1 0.00 0.00 0.00 69 1009.6
20240222040521 20 158 6.4 17.7 0.00 0.00 0.00 69 1009.7
20240222040024 20 196 3.2 17.7 0.00 0.00 0.00 69 1009.6
20240222035523 20 186 8.0 17.7 0.00 0.00 0.00 68 1009.7
20240222035021 21 154 4.8 14.5 0.00 0.00 0.00 68 1009.8
20240222034531 21 218 3.2 14.5 0.00 0.00 0.00 68 1009.6
20240222034025 21 172 6.4 14.5 0.00 0.00 0.00 67 1009.6
20240222033522 21 142 6.4 14.5 0.00 0.00 0.00 67 1009.5
20240222033028 21 152 4.8 17.7 0.00 0.00 0.00 67 1009.5
20240222032524 21 222 6.4 17.7 0.00 0.00 0.00 66 1009.5
20240222032025 21 181 6.4 14.5 0.00 0.00 0.00 66 1009.6
20240222031529 21 220 8.0 12.9 0.00 0.00 0.00 66 1009.5
20240222031025 21 205 6.4 17.7 0.00 0.00 0.00 66 1009.6
20240222030521 21 182 8.0 19.3 0.00 0.00 0.00 65 1009.5
20240222030030 21 170 11.3 19.3 0.00 0.00 0.00 65 1009.4
20240222025522 21 175 9.7 19.3 0.00 0.00 0.00 65 1009.5
20240222025022 21 124 9.7 20.9 0.00 0.00 0.00 65 1009.4
20240222024529 21 192 8.0 20.9 0.00 0.00 0.00 65 1009.6
20240222024022 21 215 8.0 17.7 0.00 0.00 0.00 64 1009.7
20240222023521 21 113 6.4 14.5 0.00 0.00 0.00 64 1009.8
20240222023023 21 229 8.0 17.7 0.00 0.00 0.00 64 1009.8
20240222022522 21 181 8.0 17.7 0.00 0.00 0.00 64 1010.0
20240222022019 21 187 8.0 17.7 0.00 0.00 0.00 63 1010.0
20240222021533 21 108 6.4 12.9 0.00 0.00 0.00 63 1010.0
20240222021021 21 219 4.8 14.5 0.00 0.00 0.00 63 1010.1
20240222020527 21 309 6.4 17.7 0.00 0.00 0.00 63 1010.0
20240222020027 22 176 8.0 17.7 0.00 0.00 0.00 63 1009.9
20240222015521 22 179 8.0 17.7 0.00 0.00 0.00 62 1009.8
20240222015022 22 209 6.4 16.1 0.00 0.00 0.00 62 1009.8
20240222014524 22 201 8.0 16.1 0.00 0.00 0.00 62 1009.8
20240222014022 22 226 6.4 16.1 0.00 0.00 0.00 62 1009.8
20240222013522 22 210 8.0 29.0 0.00 0.00 0.00 62 1009.7
20240222013025 22 218 11.3 29.0 0.00 0.00 0.00 62 1009.6
20240222012522 22 153 8.0 19.3 0.00 0.00 0.00 61 1009.6
20240222012022 22 194 4.8 19.3 0.00 0.00 0.00 61 1009.6
20240222011523 22 193 6.4 19.3 0.00 0.00 0.00 61 1009.5
20240222011020 22 170 6.4 12.9 0.00 0.00 0.00 60 1009.4
20240222010525 22 161 4.8 16.1 0.00 0.00 0.00 60 1009.4
20240222010023 22 121 4.8 16.1 0.00 0.00 0.00 59 1009.2
20240222005521 22 165 4.8 16.1 0.00 0.00 0.00 57 1009.2
20240222005021 22 164 4.8 16.1 0.00 0.00 0.00 55 1009.1
20240222004523 23 148 8.0 16.1 0.00 0.00 0.00 54 1009.3
20240222004021 23 187 8.0 22.5 0.00 0.00 0.00 54 1009.5
20240222003522 23 205 9.7 22.5 0.00 0.00 0.00 54 1009.2
20240222003021 23 192 8.0 17.7 0.00 0.00 0.00 54 1009.1
20240222002522 23 224 8.0 16.1 0.00 0.00 0.00 55 1009.3
20240222002021 23 150 8.0 19.3 0.00 0.00 0.00 55 1009.4
20240222001521 23 136 8.0 22.5 0.00 0.00 0.00 55 1009.3
20240222001021 23 208 9.7 22.5 0.00 0.00 0.00 55 1009.2
20240222000523 23 175 8.0 22.5 0.00 0.00 0.00 54 1009.0
20240222000026 23 179 9.7 22.5 0.00 0.00 0.00 54 1008.8
20240221235526 23 184 11.3 19.3 0.00 0.00 0.00 54 1008.8
20240221235023 24 247 4.8 17.7 0.00 0.00 0.00 54 1008.7
20240221234531 24 155 4.8 17.7 0.00 0.00 0.00 53 1008.8
20240221234021 24 176 9.7 19.3 0.00 0.00 0.00 53 1009.0
20240221233522 24 198 4.8 19.3 0.00 0.00 0.00 53 1009.2
20240221233033 24 176 9.7 19.3 0.00 0.00 0.00 53 1009.2
20240221232521 25 245 9.7 17.7 0.00 0.00 0.00 53 1009.2
20240221232021 25 199 6.4 14.5 0.00 0.00 0.00 52 1009.2
20240221231540 25 198 8.0 17.7 0.00 0.00 0.00 52 1009.3
20240221231023 25 149 8.0 17.7 0.00 0.00 0.00 51 1009.3
20240221230523 25 221 6.4 22.5 0.00 0.00 0.00 51 1009.4
20240221230030 25 79 8.0 22.5 0.00 0.00 0.00 51 1009.3
20240221225522 25 115 9.7 20.9 0.00 0.00 0.00 50 1009.4
20240221225023 25 214 8.0 20.9 0.00 0.00 0.00 50 1009.3
20240221224527 25 148 11.3 20.9 0.00 0.00 0.00 49 1009.3
20240221224022 25 202 9.7 20.9 0.00 0.00 0.00 49 1009.5
20240221223523 25 199 9.7 20.9 0.00 0.00 0.00 49 1009.6
20240221223028 26 155 11.3 25.7 0.00 0.00 0.00 48 1009.7
20240221222523 26 183 9.7 25.7 0.00 0.00 0.00 48 1009.7
20240221222021 26 195 9.7 24.1 0.00 0.00 0.00 48 1009.7
20240221221537 26 158 9.7 24.1 0.00 0.00 0.00 47 1009.9
20240221221025 26 207 6.4 20.9 0.00 0.00 0.00 48 1009.9
20240221220521 26 196 12.9 20.9 0.00 0.00 0.00 46 1009.9
20240221220025 26 195 8.0 20.9 0.00 0.00 0.00 47 1009.8
20240221215522 26 217 11.3 20.9 0.00 0.00 0.00 46 1009.9
20240221215022 26 198 11.3 20.9 0.00 0.00 0.00 45 1010.0
20240221214526 27 205 8.0 22.5 0.00 0.00 0.00 45 1010.4
20240221214021 26 188 9.7 27.4 0.00 0.00 0.00 46 1010.6
20240221213521 26 195 11.3 27.4 0.00 0.00 0.00 46 1010.7
20240221213039 26 193 11.3 20.9 0.00 0.00 0.00 47 1010.8
20240221212524 26 198 12.9 22.5 0.00 0.00 0.00 47 1010.8
20240221212021 26 171 9.7 22.5 0.00 0.00 0.00 47 1011.0
20240221211534 26 169 11.3 20.9 0.00 0.00 0.00 47 1011.1
20240221211021 26 255 6.4 20.9 0.00 0.00 0.00 47 1011.1
20240221210616 26 175 11.3 20.9 0.00 0.00 0.00 47 1011.2
20240221210025 27 222 6.4 17.7 0.00 0.00 0.00 47 1011.3
20240221205522 26 229 6.4 24.1 0.00 0.00 0.00 47 1011.2
20240221205027 26 238 11.3 24.1 0.00 0.00 0.00 46 1011.4
20240221204526 26 146 11.3 19.3 0.00 0.00 0.00 47 1011.5
20240221204022 26 203 9.7 19.3 0.00 0.00 0.00 47 1011.8
20240221203525 26 150 8.0 17.7 0.00 0.00 0.00 47 1012.0
20240221203028 26 176 8.0 16.1 0.00 0.00 0.00 46 1012.1
20240221202524 26 150 4.8 19.3 0.00 0.00 0.00 49 1012.3
20240221202024 26 222 9.7 19.3 0.00 0.00 0.00 48 1012.3
20240221201531 26 191 8.0 19.3 0.00 0.00 0.00 49 1012.5
20240221201028 26 224 9.7 17.7 0.00 0.00 0.00 49 1012.6
20240221200524 26 155 8.0 17.7 0.00 0.00 0.00 50 1012.6
20240221200027 26 158 8.0 17.7 0.00 0.00 0.00 50 1012.8
20240221195527 26 195 8.0 20.9 0.00 0.00 0.00 51 1012.9
20240221195023 25 191 9.7 25.7 0.00 0.00 0.00 51 1013.0
20240221194538 25 195 9.7 25.7 0.00 0.00 0.00 51 1013.2
20240221194049 25 222 9.7 19.3 0.00 0.00 0.00 51 1013.3
20240221193522 25 159 8.0 22.5 0.00 0.00 0.00 52 1013.4
20240221193031 25 207 8.0 22.5 0.00 0.00 0.00 53 1013.5
20240221192522 25 191 11.3 22.5 0.00 0.00 0.00 53 1013.6
20240221192021 25 139 9.7 22.5 0.00 0.00 0.00 53 1013.7
20240221191533 25 151 8.0 22.5 0.00 0.00 0.00 55 1013.9
20240221191025 25 236 9.7 19.3 0.00 0.00 0.00 54 1014.1
20240221190522 25 219 9.7 22.5 0.00 0.00 0.00 54 1014.2
20240221190037 24 175 9.7 22.5 0.00 0.00 0.00 56 1014.4
20240221185524 24 137 6.4 22.5 0.00 0.00 0.00 56 1014.5
20240221185023 24 207 9.7 19.3 0.00 0.00 0.00 56 1014.6
20240221184526 24 203 6.4 14.5 0.00 0.00 0.00 58 1014.9
20240221184022 24 193 8.0 17.7 0.00 0.00 0.00 58 1015.0
20240221183525 23 218 8.0 22.5 0.00 0.00 0.00 59 1015.3
20240221183035 23 95 11.3 22.5 0.00 0.00 0.00 58 1015.3
20240221182528 23 279 8.0 19.3 0.00 0.00 0.00 58 1015.5
20240221182025 23 167 8.0 16.1 0.00 0.00 0.00 59 1015.6
20240221181526 23 217 8.0 19.3 0.00 0.00 0.00 60 1015.7
20240221181025 23 199 8.0 19.3 0.00 0.00 0.00 60 1015.8
20240221180525 23 87 9.7 19.3 0.00 0.00 0.00 61 1015.8
20240221180039 22 217 9.7 17.7 0.00 0.00 0.00 62 1015.9
20240221175525 22 216 9.7 17.7 0.00 0.00 0.00 62 1016.0
20240221175022 22 207 8.0 17.7 0.00 0.00 0.00 63 1016.1
20240221174526 22 86 9.7 16.1 0.00 0.00 0.00 63 1016.1
20240221174026 22 218 6.4 19.3 0.00 0.00 0.00 64 1016.1
20240221173522 22 163 9.7 27.4 0.00 0.00 0.00 65 1016.3
20240221173037 22 216 8.0 27.4 0.00 0.00 0.00 65 1016.4
20240221172522 22 156 9.7 17.7 0.00 0.00 0.00 65 1016.4
20240221172021 21 188 9.7 19.3 0.00 0.00 0.00 65 1016.4
20240221171527 21 167 6.4 19.3 0.00 0.00 0.00 66 1016.6
20240221171023 21 190 6.4 19.3 0.00 0.00 0.00 66 1016.6
20240221170521 21 216 8.0 17.7 0.00 0.00 0.00 68 1016.6
20240221170026 21 252 9.7 17.7 0.00 0.00 0.00 69 1016.7
20240221165522 21 187 8.0 17.7 0.00 0.00 0.00 69 1016.8
20240221165021 21 146 8.0 17.7 0.00 0.00 0.00 69 1016.8
20240221164533 20 139 8.0 20.9 0.00 0.00 0.00 70 1016.9
20240221164021 20 214 8.0 20.9 0.00 0.00 0.00 71 1017.0
20240221163523 20 166 8.0 20.9 0.00 0.00 0.00 71 1017.1
20240221163022 20 136 9.7 17.7 0.00 0.00 0.00 72 1017.1
20240221162522 20 191 11.3 17.7 0.00 0.00 0.00 73 1017.2
20240221162028 20 158 8.0 16.1 0.00 0.00 0.00 73 1017.3
20240221161534 19 207 6.4 16.1 0.00 0.00 0.00 74 1017.3
20240221161022 19 199 8.0 17.7 0.00 0.00 0.00 75 1017.4
20240221160522 18 217 9.7 19.3 0.00 0.00 0.00 75 1017.5
20240221160025 18 214 8.0 19.3 0.00 0.00 0.00 76 1017.6
20240221155522 18 193 8.0 19.3 0.00 0.00 0.00 76 1017.6
20240221155024 18 146 11.3 17.7 0.00 0.00 0.00 77 1017.6
20240221154523 18 235 8.0 19.3 0.00 0.00 0.00 77 1017.7
20240221154021 18 212 8.0 19.3 0.00 0.00 0.00 78 1017.6
20240221153522 18 154 4.8 17.7 0.00 0.00 0.00 79 1017.6
20240221153026 18 241 8.0 19.3 0.00 0.00 0.00 79 1017.6
20240221152522 18 183 8.0 19.3 0.00 0.00 0.00 80 1017.7
20240221152022 17 158 6.4 19.3 0.00 0.00 0.00 81 1017.8
20240221151526 17 46 8.0 19.3 0.00 0.00 0.00 81 1017.6
20240221151022 17 195 4.8 17.7 0.00 0.00 0.00 82 1017.7
20240221150521 17 214 6.4 17.7 0.00 0.00 0.00 82 1017.7
20240221150035 17 189 6.4 14.5 0.00 0.00 0.00 83 1017.6
20240221145521 17 217 8.0 16.1 0.00 0.00 0.00 83 1017.6
20240221145022 16 178 8.0 16.1 0.00 0.00 0.00 84 1017.5
20240221144523 16 214 6.4 14.5 0.00 0.00 0.00 85 1017.6
20240221144022 16 175 8.0 14.5 0.00 0.00 0.00 85 1017.6
20240221143526 16 214 6.4 16.1 0.00 0.00 0.00 86 1017.6
20240221143033 16 127 8.0 16.1 0.00 0.00 0.00 86 1017.4
20240221142525 16 49 4.8 12.9 0.00 0.00 0.00 86 1017.5
20240221142023 15 200 6.4 12.9 0.00 0.00 0.00 87 1017.5
20240221141541 15 177 4.8 16.1 0.00 0.00 0.00 87 1017.5
20240221141025 15 192 6.4 16.1 0.00 0.00 0.00 87 1017.5
20240221140526 15 155 3.2 12.9 0.00 0.00 0.00 88 1017.5
20240221140026 15 191 4.8 12.9 0.00 0.00 0.00 88 1017.6
20240221135524 15 185 4.8 12.9 0.00 0.00 0.00 88 1017.5
20240221135023 15 195 4.8 12.9 0.00 0.00 0.00 88 1017.6
20240221134527 15 124 3.2 12.9 0.00 0.00 0.00 88 1017.6
20240221134029 15 162 6.4 12.9 0.00 0.00 0.00 88 1017.5
20240221133526 15 210 4.8 11.3 0.00 0.00 0.00 88 1017.5
20240221133026 15 214 3.2 14.5 0.00 0.00 0.00 88 1017.5
20240221132528 15 186 3.2 14.5 0.00 0.00 0.00 88 1017.5
20240221132025 15 228 6.4 14.5 0.00 0.00 0.00 88 1017.6
20240221131526 14 205 6.4 12.9 0.00 0.00 0.00 88 1017.6
20240221131025 14 189 4.8 12.9 0.00 0.00 0.00 88 1017.5
20240221130525 14 183 4.8 11.3 0.00 0.00 0.00 88 1017.5
20240221130032 14 200 4.8 9.7 0.00 0.00 0.00 87 1017.5
20240221125521 14 191 4.8 11.3 0.00 0.00 0.00 87 1017.5
20240221125022 14 145 4.8 11.3 0.00 0.00 0.00 87 1017.3
20240221124526 14 220 3.2 9.7 0.00 0.00 0.00 87 1017.3
20240221124025 14 189 3.2 8.0 0.00 0.00 0.00 87 1017.4
20240221123524 14 178 3.2 8.0 0.00 0.00 0.00 87 1017.4
20240221123033 14 162 3.2 9.7 0.00 0.00 0.00 87 1017.3
20240221122522 14 153 4.8 9.7 0.00 0.00 0.00 86 1017.3
20240221122023 14 191 4.8 9.7 0.00 0.00 0.00 86 1017.2
20240221121539 14 211 4.8 9.7 0.00 0.00 0.00 86 1017.2
20240221121023 14 191 3.2 8.0 0.00 0.00 0.00 86 1017.0
20240221120525 14 218 1.6 8.0 0.00 0.00 0.00 86 1017.1
20240221120029 14 208 3.2 8.0 0.00 0.00 0.00 86 1017.1
20240221115526 14 154 3.2 9.7 0.00 0.00 0.00 86 1017.0
20240221115025 14 152 3.2 9.7 0.00 0.00 0.00 86 1017.1
20240221114528 14 195 1.6 6.4 0.00 0.00 0.00 85 1017.1
20240221114024 14 158 1.6 8.0 0.00 0.00 0.00 85 1017.1
20240221113525 14 223 3.2 8.0 0.00 0.00 0.00 85 1017.0
20240221113025 14 207 3.2 8.0 0.00 0.00 0.00 85 1016.9
20240221112524 14 189 1.6 6.4 0.00 0.00 0.00 85 1016.9
20240221112022 14 196 3.2 6.4 0.00 0.00 0.00 85 1016.8
20240221111523 14 162 1.6 4.8 0.00 0.00 0.00 85 1016.6
20240221111021 14 118 1.6 4.8 0.00 0.00 0.00 84 1016.5
20240221110522 14 185 1.6 6.4 0.00 0.00 0.00 84 1016.6
20240221110025 14 163 1.6 6.4 0.00 0.00 0.00 84 1016.5
20240221105523 15 137 1.6 4.8 0.00 0.00 0.00 84 1016.4
20240221105022 15 136 1.6 4.8 0.00 0.00 0.00 83 1016.5
20240221104527 15 143 1.6 4.8 0.00 0.00 0.00 83 1016.5